Hlavní strana
METAR-TAF:

METAR-TAF

Letiště :

Nioro du Sahel, Mali

zeměpisná šířka: 15-14N, zeměpisná délka: 009-21W, výška: 235 m

Aktuální stav počasí

Zpráva byla vytvořena před 2 hodinami a 22 minutami, v 06:00 UTC
Jihovýchodní vítr 2 kt
Teplota 17°C
Vlhkost vzduchu 36%
Tlak 1015 hPa
Viditelnost 10 km a více
Žádná oblačnost pod 1500 m, nevyskytují se cumulonimby.

METAR: GANR 110600Z 14002KT CAVOK 17/02 Q1015

Čas: 08:22 (08:22 UTC)


TAF: chybějící

Stav a předpovědi počasí z více než 4 000 letišť (zprávy METAR a TAF).

Červené a žluté tečky na mapě představují dostupné meteorologické stanice.

Když kurzor umístíte na tečku, zobrazí se název stanice.

Pak kliknutím zobrazíte stav a předpověď počasí.

Chcete-li změnit mapu, kliknutím na zelené tlačítko se znaménkem +mapu přiblížíte, kliknutím na zelené tlačítko se znaménkem – mapu oddálíte a kliknutím na zelené šipky přejdete na sousední mapy.


METAR-TAF: